• In Belarus
  • List of Countries
  • For 7 days
  • Water Temperature
  • Satellite Maps
  • Weather Map
  • Weather Widgets
  • user-avatar
    Login

    Hourly Weather Yulara

    Today, 18 June, Monday

    Time Temperature Precipitation Wind Pressure Humidity
    00:00 +8°C° 0 mm 5 mps 725 mmHg 51%
    01:00 +8°C° 0 mm 5 mps 725 mmHg 52%
    02:00 +7°C° 0 mm 5 mps 725 mmHg 54%
    03:00 +6°C° 0 mm 5 mps 725 mmHg 56%
    04:00 +6°C° 0 mm 5 mps 725 mmHg 58%
    05:00 +5°C° 0 mm 5 mps 725 mmHg 60%
    06:00 +5°C° 0 mm 4 mps 725 mmHg 62%
    07:00 +6°C° 0 mm 5 mps 725 mmHg 56%
    08:00 +7°C° 0 mm 6 mps 725 mmHg 51%
    09:00 +8°C° 0 mm 6 mps 726 mmHg 49%
    10:00 +10°C° 0 mm 6 mps 725 mmHg 42%
    11:00 +13°C° 0 mm 6 mps 725 mmHg 34%
    12:00 +14°C° 0 mm 6 mps 724 mmHg 27%
    13:00 +15°C° 0 mm 6 mps 724 mmHg 23%
    14:00 +16°C° 0 mm 6 mps 723 mmHg 20%
    15:00 +17°C° 0 mm 6 mps 722 mmHg 17%
    16:00 +16°C° 0 mm 5 mps 722 mmHg 20%
    17:00 +14°C° 0 mm 5 mps 722 mmHg 22%
    18:00 +13°C° 0 mm 4 mps 722 mmHg 24%
    19:00 +12°C° 0 mm 4 mps 722 mmHg 26%
    20:00 +11°C° 0 mm 4 mps 723 mmHg 27%
    21:00 +9°C° 0 mm 5 mps 723 mmHg 29%
    22:00 +8°C° 0 mm 4 mps 723 mmHg 31%
    23:00 +7°C° 0 mm 4 mps 723 mmHg 32%

    Tomorrow, 19 June, Tuesday

    Time Temperature Precipitation Wind Pressure Humidity
    00:00 +7°C° 0 mm 4 mps 723 mmHg 34%
    01:00 +6°C° 0 mm 4 mps 723 mmHg 35%
    02:00 +6°C° 0 mm 4 mps 723 mmHg 37%
    03:00 +5°C° 0 mm 3 mps 723 mmHg 38%
    04:00 +5°C° 0 mm 3 mps 723 mmHg 40%
    05:00 +4°C° 0 mm 3 mps 723 mmHg 41%
    06:00 +4°C° 0 mm 3 mps 723 mmHg 43%
    07:00 +5°C° 0 mm 3 mps 723 mmHg 40%
    08:00 +8°C° 0 mm 3 mps 724 mmHg 37%
    09:00 +9°C° 0 mm 3 mps 724 mmHg 34%
    10:00 +11°C° 0 mm 3 mps 724 mmHg 29%
    11:00 +14°C° 0 mm 2 mps 723 mmHg 25%
    12:00 +16°C° 0 mm 2 mps 723 mmHg 20%
    13:00 +17°C° 0 mm 2 mps 722 mmHg 18%
    14:00 +19°C° 0 mm 1 mps 721 mmHg 17%
    15:00 +20°C° 0 mm 1 mps 721 mmHg 15%
    16:00 +18°C° 0 mm 1 mps 721 mmHg 18%
    17:00 +15°C° 0 mm 1 mps 721 mmHg 21%
    18:00 +13°C° 0 mm 1 mps 721 mmHg 24%
    19:00 +13°C° 0 mm 1 mps 721 mmHg 24%
    20:00 +13°C° 0 mm 2 mps 722 mmHg 24%
    21:00 +13°C° 0 mm 2 mps 723 mmHg 24%
    22:00 +13°C° 0 mm 3 mps 723 mmHg 25%
    23:00 +13°C° 0 mm 3 mps 723 mmHg 26%

    Day after tomorrow, 20 June, Wednesday

    Time Temperature Precipitation Wind Pressure Humidity
    00:00 +13°C° 0 mm 4 mps 723 mmHg 27%
    01:00 +13°C° 0 mm 3 mps 723 mmHg 29%
    02:00 +12°C° 0 mm 3 mps 723 mmHg 31%
    03:00 +12°C° 0 mm 3 mps 723 mmHg 32%
    04:00 +11°C° 0 mm 3 mps 723 mmHg 36%
    05:00 +10°C° 0 mm 3 mps 723 mmHg 40%
    06:00 +9°C° 0 mm 3 mps 723 mmHg 44%
    07:00 +10°C° 0 mm 4 mps 723 mmHg 43%
    08:00 +12°C° 0 mm 4 mps 724 mmHg 41%
    09:00 +13°C° 0 mm 5 mps 724 mmHg 39%
    10:00 +15°C° 0 mm 5 mps 724 mmHg 35%
    11:00 +16°C° 0 mm 5 mps 724 mmHg 30%
    12:00 +19°C° 0 mm 4 mps 724 mmHg 25%
    13:00 +19°C° 0 mm 4 mps 723 mmHg 24%
    14:00 +20°C° 0 mm 4 mps 723 mmHg 23%
    15:00 +20°C° 0 mm 4 mps 722 mmHg 22%
    16:00 +19°C° 0 mm 4 mps 722 mmHg 25%
    17:00 +17°C° 0 mm 4 mps 722 mmHg 29%
    18:00 +15°C° 0 mm 4 mps 722 mmHg 32%
    19:00 +14°C° 0 mm 4 mps 723 mmHg 37%
    20:00 +13°C° 0 mm 4 mps 723 mmHg 41%
    21:00 +12°C° 0 mm 5 mps 724 mmHg 46%
    22:00 +12°C° 0 mm 4 mps 724 mmHg 50%
    23:00 +11°C° 0 mm 4 mps 724 mmHg 55%

    21 June, Thursday

    Time Temperature Precipitation Wind Pressure Humidity
    00:00 +10°C° 0 mm 4 mps 724 mmHg 59%
    01:00 +10°C° 0 mm 4 mps 724 mmHg 62%
    02:00 +8°C° 0 mm 4 mps 724 mmHg 64%
    03:00 +8°C° 0 mm 4 mps 724 mmHg 66%
    04:00 +7°C° 0 mm 4 mps 724 mmHg 67%
    05:00 +7°C° 0 mm 4 mps 724 mmHg 68%
    06:00 +7°C° 0 mm 3 mps 724 mmHg 68%
    07:00 +8°C° 0 mm 4 mps 724 mmHg 61%
    08:00 +10°C° 0 mm 4 mps 725 mmHg 55%
    09:00 +12°C° 0 mm 4 mps 725 mmHg 48%
    10:00 +14°C° 0 mm 4 mps 725 mmHg 41%
    11:00 +15°C° 0 mm 4 mps 725 mmHg 34%
    12:00 +18°C° 0 mm 4 mps 725 mmHg 27%
    13:00 +19°C° 0 mm 4 mps 724 mmHg 25%
    14:00 +19°C° 0 mm 4 mps 723 mmHg 23%
    15:00 +20°C° 0 mm 4 mps 723 mmHg 21%
    16:00 +18°C° 0 mm 4 mps 723 mmHg 23%
    17:00 +16°C° 0 mm 3 mps 723 mmHg 26%
    18:00 +14°C° 0 mm 3 mps 723 mmHg 28%
    19:00 +13°C° 0 mm 3 mps 723 mmHg 29%
    20:00 +12°C° 0 mm 3 mps 723 mmHg 31%
    21:00 +11°C° 0 mm 3 mps 724 mmHg 32%
    22:00 +11°C° 0 mm 3 mps 724 mmHg 34%
    23:00 +10°C° 0 mm 3 mps 724 mmHg 36%

    22 June, Friday

    Time Temperature Precipitation Wind Pressure Humidity
    00:00 +9°C° 0 mm 3 mps 724 mmHg 38%
    01:00 +9°C° 0 mm 3 mps 724 mmHg 39%
    02:00 +8°C° 0 mm 3 mps 723 mmHg 41%
    03:00 +8°C° 0 mm 3 mps 723 mmHg 43%
    04:00 +7°C° 0 mm 3 mps 724 mmHg 44%
    05:00 +7°C° 0 mm 3 mps 724 mmHg 46%
    06:00 +5°C° 0 mm 3 mps 724 mmHg 47%
    07:00 +8°C° 0 mm 3 mps 724 mmHg 43%
    08:00 +9°C° 0 mm 3 mps 725 mmHg 39%
    09:00 +11°C° 0 mm 4 mps 725 mmHg 35%
    10:00 +13°C° 0 mm 4 mps 725 mmHg 32%
    11:00 +15°C° 0 mm 4 mps 725 mmHg 29%
    12:00 +16°C° 0 mm 5 mps 724 mmHg 25%
    13:00 +17°C° 0 mm 5 mps 724 mmHg 24%
    14:00 +19°C° 0 mm 5 mps 723 mmHg 22%
    15:00 +19°C° 0 mm 5 mps 723 mmHg 21%
    16:00 +18°C° 0 mm 4 mps 723 mmHg 23%
    17:00 +15°C° 0 mm 4 mps 723 mmHg 25%
    18:00 +13°C° 0 mm 3 mps 723 mmHg 27%
    19:00 +13°C° 0 mm 4 mps 723 mmHg 29%
    20:00 +12°C° 0 mm 4 mps 723 mmHg 31%
    21:00 +11°C° 0 mm 4 mps 724 mmHg 32%
    22:00 +10°C° 0 mm 4 mps 724 mmHg 34%
    23:00 +8°C° 0 mm 4 mps 724 mmHg 36%

    23 June, Saturday

    Time Temperature Precipitation Wind Pressure Humidity
    00:00 +8°C° 0 mm 4 mps 724 mmHg 38%
    01:00 +7°C° 0 mm 4 mps 724 mmHg 40%
    02:00 +8°C° 0 mm 3 mps 724 mmHg 41%
    03:00 +7°C° 0 mm 3 mps 723 mmHg 43%
    04:00 +7°C° 0 mm 3 mps 724 mmHg 44%
    05:00 +5°C° 0 mm 3 mps 724 mmHg 44%
    06:00 +5°C° 0 mm 3 mps 724 mmHg 45%
    07:00 +7°C° 0 mm 3 mps 724 mmHg 41%
    08:00 +8°C° 0 mm 4 mps 725 mmHg 36%
    09:00 +11°C° 0 mm 4 mps 725 mmHg 32%
    10:00 +12°C° 0 mm 4 mps 725 mmHg 29%
    11:00 +14°C° 0 mm 4 mps 724 mmHg 26%
    12:00 +17°C° 0 mm 4 mps 724 mmHg 22%
    13:00 +17°C° 0 mm 4 mps 723 mmHg 21%
    14:00 +18°C° 0 mm 4 mps 723 mmHg 20%
    15:00 +19°C° 0 mm 4 mps 722 mmHg 18%
    16:00 +17°C° 0 mm 4 mps 722 mmHg 21%
    17:00 +14°C° 0 mm 3 mps 722 mmHg 23%
    18:00 +13°C° 0 mm 3 mps 722 mmHg 26%
    19:00 +12°C° 0 mm 3 mps 723 mmHg 27%
    20:00 +11°C° 0 mm 3 mps 724 mmHg 29%
    21:00 +11°C° 0 mm 4 mps 724 mmHg 30%
    22:00 +10°C° 0 mm 4 mps 724 mmHg 32%
    23:00 +8°C° 0 mm 4 mps 724 mmHg 33%
    Show more